Location: *
(49.4547°N, 7.9131°E)
Time: 14:45:15
(UTC+00:00)

Meteor 1-22 Rocket - Pass Details

Date: 22 September 2019
Orbit: 786 x 942 km, 81.2° (Epoch: 21 October)

Event Time Altitude Azimuth Distance (km) Brightness Sun altitude
Rises 19:32:33 0° 186° (S) 3,576 7.3 -20.5°
Reaches altitude 10° 19:35:01 10° 186° (S) 2,645 6.6 -20.9°
Maximum altitude 19:41:06 82° 100° (E) 958 4.3 -21.7°
Drops below altitude 10° 19:47:14 10° 14° (NNE) 2,657 7.0 -22.6°
Sets 19:49:43 0° 13° (NNE) 3,594 7.7 -23.0°
